Location: Bittelbronn
(48.4454°N, 8.5870°E)
Time: 23:15:37
(UTC+00:00)

Meteor 2-5 Rocket - Pass Details

Date: 12 August 2024
Orbit: 833 x 910 km, 81.2° (Epoch: 07 September)

Event Time Altitude Azimuth Distance (km) Brightness Sun altitude
Rises 00:27:00 0° 359° (N) 3,457 8.1 -25.5°
Reaches altitude 10° 00:30:29 10° 20° (NNE) 2,531 7.2 -25.3°
Maximum altitude 00:33:58 16° 58° (ENE) 2,135 6.3 -25.1°
Drops below altitude 10° 00:37:28 10° 95° (E) 2,554 6.3 -25.0°
Sets 00:40:58 0° 117° (ESE) 3,504 6.8 -24.8°
